全球星 M024星 (GLOBALSTAR M024)

导读 | 豆包AI

GLOBALSTAR M024是全球星(GLOBALSTAR)系统下的低轨通信卫星,于1999年8月17日发射,归属全球星项目,由美欧多国企业联合发起。全球星系统是低轨卫星移动通信系统,旨在提供全球无缝移动通信覆盖,支持语音、数据、定位等业务,填补地面蜂窝网络盲区。作为早期第一代全球星卫星,GLOBALSTAR M024为后续全球星系统组网积累了经验,后续全球星系统完成第二代卫星升级与商业转型,在卫星通信与5G频谱合作中持续发展。

基本信息
目录编号:
25883
目录名称:
GLOBALSTAR M024
国际标识:
1999-043A
轨道中心:
EARTH
卫星名称:
全球星 M024星
卫星全名:
全球星 M024星 (GLOBALSTAR M024)
卫星状态:
在轨 (已飞行9706 天)
发射日期:
1999-08-17 UTC
国别 :
(GLOB)
星等 :
--
轨道信息
数据来源 国际轨道数据 AOE轨道数据
星历时间 2026-03-13T15:53:50+0800
19小时前
查看轨道信息
2026-03-14T05:00:00+0800
6小时前
查看轨道信息
半长轴 8488.055km 8488.056km
偏心率 0.0002033 0.0001955
轨道倾角 52.001° 52.000°
近地点辐角 169.658° 169.469°
升交点赤经 133.342° 132.111°
平近点角 269.265° 292.317°
近地点 2108.192km 2108.259km
远地点 2111.644km 2111.579km
周期 129.710分钟 129.710分钟
每日圈数 11.101727 11.101725
详细信息
固有亮度:
5
最大亮度:
7.9
平衡模式:
三轴稳定
覆盖范围:
全球
运营商:
全球星公司
运营商所在国:
美国
使用方式:
暂无
卫星简介
全球星星座由48颗卫星加8颗备份星组成。这些卫星分布在8个倾角为52度的圆形轨道平面上,每个轨道平面6颗卫星,另有1 颗备用星。轨道高度约为1414km,传输时延和处理时延小于300ms,整个系统的覆盖区为南北纬70度以内的地区。该卫星已退役。
2D轨道图
3D轨道图
轨道高度分析图
轨道倾角分析图
轨道综合分析图
查看轨道综合分析图